Starlink 32678

operational
NORAD ID: 62309 Int'l Des: 2024-239 Owner: SPXS Country: US Constellation: starlink
LEOCIRCULAR

Über Starlink 32678

Beschreibung wird geladen...

Live-Position

3D-Globus wird geladen...

Nächste Überflüge

Höhenverlauf

Altitude vs Time

uPlot chart will show altitude changes over time

Zweizeiliger Elementsatz

1 62309U 24239J 26095.15360460 .00027330 00000-0 93018-3 0 9996
2 62309 53.1606 58.3564 0001403 100.3465 259.7694 15.30245407 73611
Epoch: 5. Apr. 2026 • Age: 15 hours

Aktueller Status

Höhe 476.2 km
Geschwindigkeit 7.63 km/s
Subsatellitenpunkt -3.10°S, 124.81°E
Startdatum 13. Dez. 2024
Alter 1.3 years
Typ internet

Technische Details

Klassifizierung Payload
Masse 730.00 kg
Trockenmasse 700.00 kg
Gesamtmasse 730.00 kg
Länge 0.30 m
Durchmesser 4.10 m
Spannweite 29.00 m
Form Box + pan
Hersteller SPXS
Bus-Typ Starlink V2M
Phasenstatus In Orbit
Besitzer/Staat SPXS/US

Große Konstellationen

Loading constellations...